GFSFLT2_sfc_wetblb_000.txt.gz
Wetbulb
69.13 69.40 69.51 68.70 67.94 67.82 68.02 68.61 68.45 68.31 68.22 67.76 67.15 66.54 66.36 65.50 64.47 63.62 63.05 62.37 62.04 61.93 62.13 62.28 61.93 61.92 62.33 62.34 62.26 63.25 60.49 57.77
65.41 66.06 66.27 66.04 66.25 66.95 67.11 67.04 66.92 67.10 67.34 66.67 66.07 65.86 65.95 65.95 65.36 64.46 64.32 63.59 62.98 62.99 63.25 62.70 62.09 62.28 62.27 62.20 62.20 62.51 58.24 57.18
63.52 63.83 64.01 64.22 64.47 66.01 66.92 66.98 66.31 65.96 66.20 65.94 64.70 63.82 62.83 63.23 64.22 63.71 64.97 64.07 63.87 64.19 63.92 63.36 62.38 61.90 61.94 61.90 62.37 58.52 57.43 57.64
62.34 62.42 62.59 63.17 65.24 64.51 63.94 64.92 64.31 64.07 64.16 63.76 63.53 63.06 62.64 62.87 63.42 64.63 64.60 64.29 64.38 64.41 64.28 63.84 62.72 57.88 57.23 57.62 53.14 54.85 55.24 54.90
62.07 63.21 62.79 61.31 62.25 62.24 62.31 63.07 63.07 63.46 63.75 63.17 62.53 63.25 60.80 62.27 60.54 61.24 60.89 62.61 61.34 61.96 61.00 60.24 59.02 57.49 56.52 53.69 51.11 50.81 50.96 52.71
61.30 61.78 61.99 59.34 60.87 61.65 61.70 61.94 62.65 62.87 62.73 61.63 60.03 59.71 57.26 57.00 58.06 59.02 58.55 58.24 58.98 59.02 58.96 58.56 57.04 57.37 56.59 54.23 50.69 49.53 50.13 51.56
60.85 60.33 59.95 59.64 58.92 59.76 59.71 60.23 61.98 62.04 61.74 61.00 58.81 58.48 56.31 56.34 55.65 55.09 54.36 54.00 54.65 54.35 55.79 55.06 53.47 54.43 53.80 52.27 50.96 49.85 50.04 50.71
61.46 61.98 61.82 60.70 59.94 59.72 59.24 58.96 58.15 59.65 59.69 59.12 58.67 57.37 56.46 56.12 54.93 54.96 54.84 54.88 54.61 53.50 52.98 52.77 53.11 53.45 53.69 53.16 51.62 49.79 49.14 49.85
62.65 62.64 61.45 60.51 59.81 60.00 59.05 55.39 56.10 56.06 55.51 55.43 55.69 56.12 55.71 55.04 53.45 52.95 53.94 54.86 54.19 53.71 53.24 53.11 52.92 53.32 52.80 53.65 53.19 52.19 49.83 49.60
62.71 62.41 62.45 59.28 58.52 57.22 56.25 56.05 54.83 53.78 54.50 54.01 54.74 55.02 54.34 52.90 52.07 51.66 52.73 52.81 52.33 51.82 52.21 51.90 50.98 50.62 50.69 51.32 52.19 52.20 51.46 50.57
61.38 61.31 60.59 59.20 57.13 56.27 54.55 54.17 53.66 53.19 52.55 51.85 53.66 54.29 54.07 51.89 50.77 50.99 51.90 50.78 49.96 49.90 49.64 49.89 48.69 48.06 48.92 48.16 49.13 50.30 50.96 52.90
58.21 59.45 59.35 56.22 51.79 52.44 51.70 52.03 52.80 51.40 50.64 51.88 52.23 51.37 51.25 50.17 50.11 50.13 50.20 48.89 47.59 47.36 46.63 46.88 46.89 46.59 48.80 47.79 47.08 48.52 49.21 49.23
53.24 53.94 54.84 51.87 50.44 50.22 51.32 49.10 49.77 49.46 49.42 50.67 51.03 51.29 51.01 49.65 48.73 48.95 48.43 47.01 46.10 45.95 45.81 45.41 45.51 45.63 44.15 45.63 44.72 46.04 46.40 46.70
51.85 51.04 50.57 50.87 51.67 50.98 50.75 48.90 48.65 49.14 51.84 51.49 50.53 50.07 49.49 49.14 47.05 46.10 46.62 45.48 44.70 44.34 44.82 43.90 44.30 44.63 42.80 42.35 39.75 43.39 42.53 45.00
49.26 48.73 48.90 49.89 50.70 49.02 48.97 49.07 49.21 48.88 48.09 47.51 48.47 47.71 47.24 46.31 45.58 45.52 45.03 44.76 43.64 43.45 43.86 43.34 42.22 43.11 43.49 42.10 38.46 36.57 38.92 42.29
48.14 48.81 48.64 48.84 48.70 47.65 47.89 46.72 45.67 46.66 46.09 45.01 44.19 45.30 45.66 45.57 44.85 44.60 44.36 44.10 42.69 43.01 44.99 42.88 42.40 40.88 42.02 43.78 41.20 39.86 37.80 36.65
47.51 48.51 48.54 48.24 48.06 47.22 46.78 45.05 44.23 44.40 44.08 42.36 42.47 43.34 44.30 43.95 43.71 43.36 43.27 43.04 42.15 41.89 42.42 41.64 41.71 40.72 40.24 40.04 39.30 38.79 40.81 36.96
46.39 47.08 47.91 47.86 46.89 46.58 46.60 43.85 42.98 42.24 40.89 40.27 40.89 42.00 42.43 42.69 43.07 41.49 40.59 40.69 40.27 39.94 39.18 39.49 38.78 38.52 38.09 38.47 38.17 36.80 35.76 35.22
47.24 47.72 48.10 47.73 46.54 44.93 43.75 42.53 41.64 40.32 40.21 41.25 41.13 41.99 41.89 41.40 41.04 40.43 39.92 39.91 39.39 38.79 38.06 37.41 38.05 37.47 37.33 38.03 38.20 37.58 37.51 36.87
46.61 45.53 43.68 44.54 43.80 42.85 42.83 43.29 44.06 43.75 43.18 40.02 41.82 41.13 40.34 40.72 40.37 39.93 39.48 39.37 38.48 37.69 36.77 36.38 36.40 35.57 34.69 35.25 35.63 35.86 35.83 35.44

GFSFLT2_sfc_wetblb_003.txt.gz
Wetbulb
70.20 70.27 70.39 69.19 68.18 67.91 67.89 68.13 68.33 68.35 68.06 67.62 67.11 66.36 65.89 64.84 63.55 62.92 62.61 62.23 62.47 62.84 63.18 62.74 62.46 62.35 62.51 62.65 62.39 63.20 58.33 56.68
67.53 66.61 66.53 65.85 65.92 66.99 67.15 67.26 67.28 67.46 67.43 66.83 65.80 65.45 65.77 65.70 65.30 64.05 63.63 63.42 63.49 63.63 63.81 63.49 63.11 62.80 62.82 62.37 61.83 60.87 56.76 56.13
63.79 64.31 64.20 63.96 63.94 65.83 66.77 66.98 66.54 66.45 66.23 65.91 64.25 62.65 61.85 62.20 64.08 64.18 64.81 64.27 64.04 64.23 64.12 63.91 62.97 62.30 62.04 62.09 60.41 53.77 54.68 55.19
62.46 62.44 62.52 63.06 65.37 63.78 63.10 64.14 63.56 63.33 63.52 63.02 62.73 62.11 61.92 63.08 63.11 64.26 64.85 64.45 64.52 64.65 64.63 64.15 63.55 58.57 57.16 58.94 52.73 50.90 52.16 52.20
61.58 61.48 61.83 61.90 62.21 62.35 61.94 62.35 62.21 62.42 62.72 62.16 62.08 62.58 61.70 61.23 60.40 59.71 59.89 62.40 60.50 61.43 60.64 59.92 58.88 57.99 57.11 55.62 53.74 50.52 49.68 51.26
61.59 61.05 61.00 60.35 60.80 61.13 60.86 61.65 61.84 62.09 62.76 62.38 60.37 59.48 58.05 57.45 57.80 57.45 56.18 56.05 55.49 57.75 57.90 57.81 57.21 57.05 56.73 56.01 54.48 50.57 49.29 50.06
61.12 61.52 60.55 59.67 59.83 60.09 60.22 60.79 62.27 62.42 61.94 61.33 59.55 58.18 55.38 55.10 54.49 54.26 53.86 53.77 53.52 52.96 53.11 53.36 52.33 52.38 53.20 52.92 52.02 51.07 50.09 49.73
59.58 61.22 60.01 58.55 57.44 58.99 59.10 59.56 60.77 61.45 60.83 59.19 57.67 56.44 55.19 55.21 54.14 53.65 53.09 53.67 53.57 53.12 52.43 51.97 51.93 52.24 52.40 52.60 52.51 51.38 50.27 49.49
59.77 60.14 60.19 58.42 58.11 58.14 57.47 58.11 57.84 57.91 56.00 55.67 55.45 55.66 54.66 53.34 51.85 51.07 51.50 52.02 51.24 50.71 50.65 50.54 49.67 50.23 49.60 51.09 51.59 51.46 51.18 50.54
61.56 63.29 60.93 60.38 59.34 58.23 56.65 55.33 53.25 53.80 53.68 53.70 53.96 53.79 52.88 51.26 49.53 49.24 49.65 50.37 49.81 48.67 48.97 47.31 47.12 47.00 46.86 47.47 47.58 49.39 49.90 51.87
61.40 62.76 62.73 61.22 58.16 55.93 54.61 52.87 51.33 50.84 50.73 51.29 50.99 50.81 50.69 48.88 48.43 48.80 49.43 48.59 47.05 46.81 46.29 46.15 45.59 45.31 46.09 45.44 45.00 46.03 47.03 50.78
58.19 57.58 58.49 55.32 53.37 52.37 51.22 51.97 51.47 51.38 49.88 49.60 49.81 49.46 49.74 48.87 48.18 47.92 47.62 46.10 45.17 44.50 43.83 44.82 44.71 44.54 46.39 45.02 43.46 44.07 44.72 46.44
54.31 53.81 53.30 53.21 52.23 51.51 50.54 49.54 49.57 49.56 49.05 49.55 48.70 48.06 48.34 46.60 45.94 45.85 45.44 44.24 43.27 43.91 43.77 43.18 42.81 43.52 41.70 43.43 41.92 41.57 43.54 44.60
51.36 51.42 50.24 50.51 50.71 49.80 51.08 50.00 49.08 50.68 49.88 48.44 47.29 46.52 45.53 46.03 44.84 44.43 43.83 43.17 42.62 42.27 42.02 41.82 42.11 42.82 41.31 40.46 37.61 40.48 41.33 43.29
48.07 48.11 49.06 49.43 51.41 50.52 48.13 47.45 47.37 45.87 44.67 44.46 43.93 45.76 44.84 44.30 44.09 43.71 43.02 42.28 41.31 41.37 41.82 41.22 40.28 41.52 41.59 40.05 36.68 34.49 37.12 40.08
46.25 47.18 47.13 47.72 47.52 46.92 46.46 45.95 44.75 44.30 43.72 41.47 41.92 43.85 43.27 43.47 42.94 42.36 41.68 41.18 40.32 41.53 41.72 39.84 39.86 38.27 39.81 41.81 39.15 37.48 34.42 33.17
45.66 46.96 47.43 47.02 46.51 46.32 45.61 43.71 42.01 42.82 41.02 40.16 40.66 41.93 42.07 42.55 41.39 41.84 40.98 40.09 39.05 38.37 38.31 37.50 37.71 36.78 36.57 36.82 36.85 36.96 36.50 34.98
43.94 45.52 46.19 46.43 45.76 44.79 43.96 41.44 41.10 39.36 38.73 39.09 39.30 40.69 41.22 41.68 42.28 40.73 39.45 38.72 37.96 37.35 36.58 36.14 35.77 35.63 35.99 37.42 37.15 36.27 35.06 35.09
45.81 45.19 43.94 43.24 42.44 41.85 41.56 40.44 39.42 39.51 39.68 39.53 41.04 41.65 41.49 40.43 39.56 38.65 38.29 38.19 37.45 36.80 35.50 34.61 34.76 33.44 33.12 33.70 34.56 33.62 34.82 33.82
42.09 42.33 41.83 41.89 41.90 41.39 41.57 41.76 41.59 41.77 43.28 42.85 40.71 39.41 39.15 39.40 38.61 38.05 37.76 37.62 36.73 36.15 34.70 34.13 33.29 31.87 31.38 31.58 31.84 32.41 33.09 33.14

GFSFLT2_sfc_wetblb_006.txt.gz
Wetbulb
69.28 68.88 69.28 69.01 68.36 68.27 68.13 68.33 68.35 68.08 67.65 67.10 66.75 65.94 65.58 64.34 63.66 63.57 63.21 63.00 63.51 63.88 64.21 63.79 63.48 63.19 63.20 62.89 62.13 61.61 55.45 56.28
67.67 68.37 69.07 67.16 66.40 67.03 67.06 67.08 67.24 67.30 67.14 66.54 65.66 65.53 65.59 65.24 64.58 63.55 64.20 63.99 64.06 64.52 64.21 64.14 63.86 63.51 63.00 62.74 61.94 56.99 52.77 53.87
67.21 67.01 66.90 64.81 64.21 65.80 66.90 67.19 66.77 66.45 66.25 65.87 63.95 61.52 60.89 60.88 63.69 64.56 64.51 64.19 64.29 64.53 64.50 64.20 63.64 62.63 61.72 62.11 60.33 52.03 50.99 52.15
64.82 63.59 63.02 62.83 65.34 63.79 62.93 63.66 63.04 63.15 63.34 62.79 61.96 61.20 60.91 62.38 62.89 63.93 64.50 64.48 64.85 64.72 64.63 64.50 63.03 58.87 57.78 58.97 55.44 53.59 50.80 50.34
62.04 61.58 61.72 61.56 62.44 61.43 60.95 61.61 61.10 61.47 61.56 60.98 61.02 61.89 60.68 60.25 59.78 58.79 58.28 60.97 59.11 59.20 59.25 58.73 58.10 57.63 57.11 56.53 55.92 54.67 51.25 50.33
61.29 60.85 60.58 60.52 60.25 60.42 60.03 60.40 60.50 60.56 61.45 61.69 60.02 59.39 58.18 56.88 56.67 54.80 53.93 53.76 53.60 54.68 55.40 55.83 55.80 54.91 53.95 54.17 54.80 54.06 52.05 50.56
59.80 60.10 59.64 59.88 59.22 59.44 59.00 59.91 60.93 61.06 61.06 60.53 58.74 57.40 54.56 54.41 53.54 53.58 53.58 53.47 52.87 52.37 52.37 52.29 52.00 52.44 52.09 52.08 52.11 51.75 51.34 50.54
60.07 60.21 59.27 57.89 58.07 58.77 58.91 59.49 60.32 60.78 59.87 58.32 57.48 55.65 54.51 54.12 52.73 51.78 51.14 51.67 51.14 51.04 51.23 50.85 50.28 50.17 49.57 50.52 50.36 50.27 50.21 50.42
58.87 59.35 59.13 58.76 58.77 58.79 59.26 58.72 59.47 58.79 57.02 54.85 55.91 54.98 53.17 51.12 49.54 48.70 49.00 49.94 49.45 48.84 48.67 47.56 47.06 47.47 47.30 47.92 47.61 48.35 48.87 50.34
60.88 61.92 61.59 60.05 58.80 58.51 57.83 56.39 56.05 55.36 55.04 54.53 52.54 51.11 50.11 48.42 48.11 48.03 48.37 48.24 46.73 46.80 46.82 44.76 45.39 44.81 44.42 44.96 44.76 46.40 47.19 49.56
60.62 61.29 60.60 59.19 57.67 56.37 55.36 53.35 51.43 50.47 50.70 49.65 49.21 49.75 49.04 47.94 47.46 47.20 46.78 45.29 44.58 44.83 44.44 44.43 44.21 43.68 44.86 44.59 43.04 43.91 45.59 48.97
58.24 57.74 56.78 56.01 55.34 54.84 54.17 51.12 51.04 51.35 50.90 50.05 48.92 49.13 49.73 49.00 46.91 45.33 44.83 43.68 43.04 43.12 42.94 43.09 43.24 43.28 45.06 43.57 42.27 42.46 45.27 45.95
54.43 54.41 54.94 53.53 51.21 50.53 49.68 49.48 50.86 52.15 48.12 47.48 47.01 47.58 45.47 44.49 44.00 43.77 43.48 42.35 41.61 42.58 42.02 41.75 41.77 42.69 40.91 41.04 41.11 41.67 42.91 44.45
52.96 51.91 50.69 51.16 50.28 49.30 51.58 51.34 49.49 46.69 45.91 44.32 44.58 44.50 44.07 44.62 43.29 42.67 42.15 41.63 41.30 41.26 40.99 40.65 40.71 41.83 40.20 39.39 36.71 38.99 40.86 41.85
47.61 47.83 48.12 48.77 50.18 49.60 46.65 46.43 46.20 43.88 43.39 41.33 42.48 43.29 43.03 42.68 42.78 42.11 41.19 40.81 40.61 40.10 40.07 39.70 38.82 39.70 39.78 38.62 35.20 33.26 35.94 38.85
45.52 46.54 46.34 46.72 46.33 45.82 45.12 43.95 42.84 42.38 40.68 39.71 40.79 42.19 42.33 42.55 41.89 41.07 40.35 39.90 40.08 40.05 39.60 38.35 38.68 35.26 38.10 39.30 37.85 36.93 34.10 33.18
44.08 45.59 45.70 45.49 45.12 45.23 43.93 41.20 41.42 40.72 39.31 39.63 39.77 41.08 41.65 41.28 40.76 40.22 39.62 38.87 37.94 37.58 36.33 35.48 36.08 34.99 34.98 35.27 35.55 35.51 35.86 33.56
43.71 44.54 43.32 43.78 42.99 42.74 41.99 40.83 39.62 38.72 39.40 39.65 40.16 39.94 40.25 40.32 40.38 38.91 38.40 37.65 36.91 36.21 35.37 34.87 34.45 34.27 34.33 34.40 34.32 33.02 31.89 32.19
43.01 41.82 41.06 41.74 41.50 41.38 41.15 40.68 39.23 39.82 39.68 39.09 39.30 40.10 39.71 38.94 38.46 37.90 37.38 37.42 37.60 35.91 34.55 33.82 32.93 31.73 31.70 32.10 32.78 32.28 33.63 32.69
40.08 40.14 39.87 40.55 40.71 40.29 40.39 40.31 39.85 40.55 40.60 39.88 40.23 38.33 37.88 38.23 38.08 36.94 36.88 39.33 37.31 38.32 36.31 33.43 33.16 31.37 30.84 30.23 31.05 31.51 32.02 31.87

GFSFLT2_sfc_wetblb_009.txt.gz
Wetbulb
70.42 70.96 70.65 68.93 68.59 68.52 68.07 68.15 68.26 68.03 67.62 67.16 66.32 65.46 65.06 64.44 64.13 64.21 64.00 64.09 64.95 64.85 64.51 64.43 63.88 64.14 63.78 63.32 62.29 59.28 59.54 59.41
70.26 70.62 70.21 70.18 70.08 67.56 67.56 67.42 67.46 67.19 67.00 66.30 65.06 65.02 64.86 64.86 63.89 63.83 64.69 64.61 64.79 64.83 65.14 65.06 64.74 63.97 63.27 62.64 62.23 59.04 59.88 59.43
68.63 68.08 68.27 69.47 69.73 68.67 67.57 67.21 66.99 66.50 66.39 65.58 64.73 65.74 65.36 64.81 64.51 64.57 65.02 64.63 64.86 65.21 65.15 64.86 64.51 63.44 62.34 62.57 61.49 62.44 61.66 60.61
67.40 67.38 67.21 67.97 67.69 68.19 67.40 66.84 66.82 66.55 66.30 66.20 66.56 66.06 66.19 65.40 65.03 63.74 63.82 63.82 64.59 63.87 63.76 63.76 63.71 64.26 63.68 62.31 62.29 62.44 62.08 61.26
65.94 66.42 66.90 67.77 67.21 66.97 66.41 66.14 65.79 65.86 65.97 65.82 66.39 66.13 66.97 67.05 66.37 65.61 65.13 62.51 62.75 61.90 62.77 63.46 63.14 62.69 61.47 61.01 60.95 60.86 60.40 59.82
66.74 67.17 66.39 65.71 65.41 65.24 64.57 64.49 64.43 64.66 65.65 65.97 66.02 65.91 65.94 64.32 63.72 62.07 61.60 61.35 60.86 60.50 60.77 60.87 60.48 59.42 58.85 58.87 58.37 57.53 56.60 57.14
65.21 64.67 64.32 64.11 63.69 63.42 63.24 63.27 63.74 64.58 65.34 65.36 65.58 64.41 63.83 62.41 61.46 60.56 59.86 59.74 59.07 58.94 59.07 59.12 58.43 57.64 57.54 56.47 55.45 55.04 55.76 56.07
63.89 63.18 62.90 62.76 62.47 63.01 63.23 62.94 62.22 62.14 62.53 60.71 61.18 61.64 61.54 60.53 58.06 56.81 56.98 57.51 57.62 57.54 57.51 56.60 55.79 55.24 55.04 54.90 53.65 53.89 54.68 55.62
62.81 62.07 62.51 62.52 62.01 62.51 61.29 60.47 59.54 58.23 58.98 59.15 57.61 57.85 57.94 56.53 56.57 56.47 55.73 56.70 55.87 56.18 55.35 55.15 54.53 52.95 52.70 52.72 52.35 52.84 52.88 54.75
63.20 62.77 62.81 62.57 62.61 60.80 59.71 56.93 57.49 56.27 56.71 56.78 55.60 55.70 56.03 56.18 55.53 54.91 54.65 54.32 54.05 54.00 53.29 52.77 52.50 51.62 50.94 51.15 51.42 51.48 52.79 54.63
62.92 63.65 62.54 61.48 58.86 55.95 54.42 55.13 54.23 53.80 55.28 54.41 54.17 53.15 53.76 54.45 53.60 52.66 52.64 51.93 52.21 51.55 51.25 50.92 49.92 49.19 48.10 49.61 49.44 49.28 53.69 52.99
61.23 61.48 60.76 59.41 57.35 56.21 55.59 55.32 54.89 55.21 53.62 51.13 52.36 52.61 52.64 52.87 52.05 51.88 51.91 51.04 50.46 50.57 49.69 49.55 49.11 47.92 45.90 47.13 47.78 49.74 53.45 52.49
59.46 59.03 58.72 58.43 55.94 55.43 55.51 55.26 54.53 51.75 51.97 51.76 51.56 51.63 51.47 51.77 50.98 50.86 50.84 50.03 49.81 49.86 49.25 46.82 46.58 48.07 45.76 45.30 45.74 49.69 50.35 49.82
58.33 57.62 56.72 56.64 56.81 56.73 57.45 56.53 53.54 51.04 50.42 50.10 50.16 50.31 50.10 50.12 50.66 50.43 50.49 49.89 49.34 48.63 47.55 45.90 46.64 47.40 43.05 42.69 40.57 43.37 46.40 47.86
55.59 55.44 55.62 55.25 55.61 55.21 53.66 53.46 52.61 50.99 49.34 49.18 49.41 49.82 49.92 50.24 50.32 50.57 49.98 49.52 48.37 47.66 46.87 45.64 43.61 45.25 45.88 41.95 38.18 37.13 40.56 44.19
52.68 52.66 52.61 52.00 52.38 52.61 52.33 51.93 50.95 49.52 48.45 49.28 49.96 49.67 49.58 48.81 48.85 48.89 48.68 48.27 47.02 46.31 45.32 44.55 43.77 40.57 42.45 43.84 42.83 41.52 36.17 34.79
50.91 50.85 50.34 50.50 51.34 51.52 50.62 49.45 49.04 48.42 49.06 47.90 48.18 48.74 48.41 47.65 47.18 47.22 46.82 46.35 45.39 44.69 43.47 42.46 42.36 40.41 39.74 39.26 39.06 38.43 38.64 35.05
49.69 48.72 48.09 49.09 49.60 49.69 49.90 49.02 47.55 47.53 47.42 47.20 47.65 48.20 48.60 47.89 46.30 46.40 45.70 45.11 44.02 43.48 42.96 41.25 41.15 40.65 40.19 39.03 36.52 34.37 33.68 33.69
47.48 47.43 46.40 47.66 47.65 47.30 47.07 46.62 46.93 46.77 46.37 45.97 45.76 45.95 46.24 47.04 45.97 45.16 44.35 43.34 42.79 43.42 42.18 41.19 40.47 39.38 38.61 37.63 38.13 36.73 37.04 35.68
46.77 46.62 45.82 46.32 46.59 46.07 45.99 44.83 43.75 43.17 42.89 42.84 42.58 42.85 43.56 45.74 45.38 43.96 43.59 43.76 43.21 42.17 41.85 41.00 40.90 39.83 38.93 38.50 37.85 37.87 38.45 37.43

GFSFLT2_sfc_wetblb_015.txt.gz
Wetbulb
70.04 69.59 68.88 68.34 68.35 68.20 68.15 68.32 68.08 67.83 67.07 66.09 64.78 64.69 64.98 64.59 64.55 64.69 64.54 64.47 64.74 64.79 64.64 65.01 64.95 64.62 64.16 63.97 63.87 64.28 63.14 62.02
70.21 69.81 70.03 70.13 69.76 67.73 67.65 67.62 67.46 67.12 66.24 65.19 64.90 65.04 64.45 64.00 64.28 64.83 64.81 64.85 65.20 65.62 65.63 65.49 65.09 65.33 64.47 63.37 63.28 63.61 62.28 61.65
69.57 69.53 69.33 69.39 69.04 68.17 67.41 67.48 66.99 66.39 66.06 64.95 64.29 66.04 66.02 65.39 64.37 64.52 64.85 64.62 64.57 64.74 64.19 64.28 64.56 64.72 65.12 63.16 63.10 61.35 61.53 60.63
69.17 69.00 68.92 68.80 66.95 67.78 67.01 65.52 65.85 66.48 67.03 66.61 66.61 67.03 67.00 64.10 64.40 64.45 64.39 64.12 64.68 64.16 63.57 63.79 63.65 62.99 62.90 64.92 61.04 61.05 60.23 59.80
68.23 69.46 69.58 67.38 66.56 66.11 65.39 65.41 66.38 67.39 67.78 67.36 67.49 67.12 67.71 66.50 65.57 66.04 66.17 63.41 64.72 63.97 63.95 63.22 63.21 62.69 61.73 61.61 60.72 60.18 59.00 58.78
67.20 67.53 68.88 67.43 66.11 65.17 65.18 65.69 66.66 66.57 67.35 67.79 67.68 66.53 66.81 66.02 64.84 65.22 65.52 64.65 63.93 63.65 62.89 63.17 62.44 61.52 60.55 60.10 59.68 58.88 58.19 58.15
66.70 67.65 67.18 66.66 65.74 65.83 66.81 66.90 66.82 66.91 66.89 65.88 66.05 65.90 65.36 64.53 64.45 64.48 64.01 63.40 62.98 62.47 61.87 60.73 59.65 59.83 59.68 58.62 58.37 57.90 57.91 57.11
66.74 66.47 66.72 66.04 65.99 67.12 65.67 64.77 64.36 63.70 64.13 64.56 65.34 65.23 64.54 62.19 62.10 62.49 61.58 62.04 60.86 60.11 59.05 58.24 58.01 58.69 58.04 57.90 57.36 57.26 57.20 57.14
66.42 66.79 66.45 66.12 66.82 64.44 62.96 61.13 61.85 61.58 62.73 64.31 63.76 63.72 62.26 61.13 60.63 59.80 58.56 60.39 59.71 59.14 58.88 57.87 56.81 56.61 56.55 56.31 55.90 55.90 56.01 55.82
67.21 66.05 66.38 66.75 65.32 63.37 61.72 62.15 62.34 60.49 59.49 59.80 59.24 59.59 59.69 59.07 58.25 59.08 58.90 58.08 57.62 57.12 56.32 55.35 54.73 54.39 54.18 54.25 53.87 53.77 54.28 54.71
66.78 66.81 66.38 65.52 64.61 63.57 64.42 63.66 62.93 61.64 60.59 60.07 59.46 58.66 59.05 59.42 58.65 57.87 58.05 57.07 56.62 55.76 55.08 54.64 53.40 53.04 52.47 52.72 53.47 52.69 53.55 52.58
67.38 66.69 65.64 64.55 63.52 64.28 64.44 63.36 61.97 61.33 61.08 59.81 59.07 58.37 57.86 58.25 58.00 56.99 56.55 55.71 55.27 55.09 54.23 54.12 52.97 52.15 50.33 50.58 51.93 51.36 51.69 51.97
64.62 64.06 64.19 64.32 64.23 63.22 61.08 59.99 60.53 60.29 59.32 58.18 57.74 57.20 56.54 56.47 56.35 56.16 55.95 54.64 54.11 54.13 53.09 51.40 49.43 50.68 48.46 48.74 48.77 50.24 51.73 50.94
63.94 64.62 64.40 64.97 63.92 62.19 61.49 61.32 60.76 58.82 57.96 57.35 56.68 56.38 56.01 55.47 55.35 54.73 54.59 53.23 53.00 52.17 51.12 49.24 48.78 49.28 46.29 45.90 42.34 44.51 47.42 48.67
64.65 64.48 64.34 63.17 62.21 61.91 61.63 60.41 58.27 57.06 56.67 56.23 55.86 55.70 55.15 54.84 54.59 54.07 53.61 52.46 50.14 50.89 50.22 49.26 46.22 47.54 48.22 44.54 40.16 38.85 41.78 45.03
62.89 62.07 61.16 61.14 60.79 59.28 58.49 58.41 56.19 56.09 55.98 55.79 55.55 55.35 54.78 54.08 53.04 52.68 52.04 51.07 49.94 49.53 49.45 48.38 47.16 44.37 45.98 46.18 45.85 43.76 38.83 37.51
60.48 59.30 58.11 58.49 58.89 58.84 57.77 56.06 55.52 55.05 55.52 53.27 53.62 52.67 51.00 49.66 49.06 48.97 49.40 50.06 50.09 49.74 49.01 47.90 47.09 45.31 44.12 43.16 42.71 42.03 41.73 38.10
58.14 57.42 57.09 57.54 57.30 56.80 55.65 53.96 52.63 51.51 49.52 48.03 47.48 47.26 47.45 47.78 47.40 48.04 48.23 48.94 49.31 49.07 48.51 47.45 46.15 44.87 43.89 42.64 40.64 38.55 37.56 37.24
56.87 56.28 55.12 55.66 54.82 53.53 52.44 50.36 48.89 47.20 46.67 45.97 45.71 45.51 45.70 46.31 46.82 47.46 47.68 48.15 48.68 48.02 46.66 45.51 45.20 43.29 42.60 41.18 41.25 40.23 40.20 38.57
55.75 55.23 54.08 53.10 51.37 50.00 49.02 47.63 46.04 46.90 46.62 46.39 45.79 45.23 45.47 46.19 46.50 47.69 48.25 48.10 47.29 46.48 45.91 45.65 44.64 43.36 42.19 41.61 40.85 40.60 40.48 39.37